Vertical_Velocity
-1 -0 -2 2 3 -5 1 0 2 -2 -2 -2 9 5 0 5 0 1 -2 -2 2 2
6 1 -1 1 1 -4 -1 -2 2 -1 0 -4 1 13 10 5 4 3 2 3 1 0
-4 -1 -1 -1 2 -4 -1 2 -2 1 -2 -2 -3 -0 20 9 2 0 2 -1 -0 -1
8 12 0 2 2 -3 -1 4 -0 -2 -1 0 -9 -2 1 6 7 3 -3 -4 0 1
2 5 1 -1 2 -3 -2 3 2 -1 0 3 -2 0 6 1 1 3 1 1 3 5
0 1 0 -1 2 -2 -3 1 3 0 -1 -2 -1 -2 12 9 2 0 5 -0 2 4
5 -0 0 -1 1 -1 -3 -0 1 3 2 -2 -4 -1 -1 5 4 -0 5 10 7 4
1 -1 0 0 1 -1 -1 0 1 0 2 -2 -2 3 -1 0 3 6 -1 21 10 7
-1 -1 2 -0 1 -1 0 -0 -2 1 1 4 -4 3 16 6 8 10 5 2 7 2
-1 -1 2 -1 -0 -1 -1 1 -0 -0 0 0 3 -2 -4 6 0 2 9 11 6 8
1 -1 2 0 0 -3 -0 0 1 -0 -2 -1 -1 1 0 -3 3 -1 2 2 0 -1
5 -2 6 1 0 -1 0 0 0 -0 -0 -0 -1 -1 1 -1 -2 -2 2 1 3 -3
4 3 8 -2 2 -1 -1 -0 -1 -0 -1 1 1 -1 -0 0 0 0 -0 -4 -1 1
3 1 3 1 -0 -2 -0 -1 -0 1 2 1 -0 0 1 1 1 -1 -1 -0 0 0
Height
5679 5683 5684 5685 5687 5685 5684 5682 5680 5678 5677 5676 5680 5686 5692 5697 5704 5709 5714 5720 5725 5730
5672 5676 5678 5679 5681 5680 5677 5675 5675 5674 5674 5674 5676 5682 5687 5691 5697 5702 5707 5713 5719 5722
5665 5670 5672 5674 5675 5674 5672 5671 5669 5668 5670 5671 5674 5675 5681 5686 5692 5697 5701 5707 5711 5715
5657 5661 5664 5668 5670 5670 5668 5667 5665 5665 5665 5667 5669 5672 5676 5681 5687 5692 5696 5700 5705 5710
5649 5653 5657 5661 5664 5664 5663 5662 5662 5662 5662 5663 5664 5667 5671 5676 5681 5687 5691 5695 5699 5704
5641 5645 5650 5654 5658 5659 5657 5657 5657 5657 5657 5657 5656 5657 5661 5667 5672 5678 5683 5688 5692 5696
5633 5638 5642 5648 5651 5653 5652 5651 5651 5652 5652 5651 5647 5648 5651 5657 5664 5670 5675 5679 5683 5686
5625 5630 5636 5641 5645 5646 5647 5647 5646 5646 5647 5645 5640 5640 5645 5649 5655 5661 5666 5670 5674 5677
5617 5622 5629 5634 5637 5639 5641 5642 5643 5641 5642 5641 5638 5635 5639 5642 5646 5652 5656 5661 5664 5667
5608 5614 5621 5626 5630 5632 5634 5635 5637 5637 5638 5639 5638 5637 5636 5638 5641 5645 5649 5652 5656 5661
5599 5606 5613 5618 5623 5625 5628 5630 5632 5633 5634 5635 5636 5637 5637 5638 5639 5642 5644 5648 5652 5656
5592 5598 5605 5611 5615 5618 5621 5624 5626 5628 5629 5631 5633 5633 5634 5636 5638 5640 5642 5645 5648 5651
5584 5590 5595 5601 5606 5611 5614 5617 5620 5622 5624 5625 5627 5628 5630 5632 5633 5636 5638 5641 5642 5645
5576 5582 5586 5592 5599 5603 5607 5610 5613 5615 5617 5619 5621 5623 5624 5626 5627 5629 5631 5633 5635 5636